Time,TemperatureF,DewpointF,PressureIn,WindDirection,WindDirectionDegrees,WindSpeedMPH,WindSpeedGustMPH,Humidity,HourlyPrecipIn,Conditions,Clouds,dailyrainin,SolarRadiationWatts/m^2,SoftwareType,DateUTC
2013-10-05 00:04:00,60.0,59.0,30.44,SE,132,1.0,2.0,98,0.00,,,0.00,0.000000,,2013-10-05 04:04:00,
2013-10-05 00:14:00,60.0,59.0,30.44,SE,132,1.0,2.0,98,0.00,,,0.00,0.000000,,2013-10-05 04:14:00,
2013-10-05 00:44:00,59.0,58.0,30.44,SE,142,1.0,2.0,98,0.00,,,0.00,0.000000,,2013-10-05 04:44:00,
2013-10-05 00:54:00,59.0,58.0,30.44,SE,142,1.0,2.0,98,0.00,,,0.00,0.000000,,2013-10-05 04:54:00,
2013-10-05 01:04:00,59.0,58.0,30.44,SE,142,1.0,2.0,98,0.00,,,0.00,0.000000,,2013-10-05 05:04:00,
2013-10-05 01:13:00,59.0,58.0,30.44,SE,142,1.0,2.0,98,0.00,,,0.00,0.000000,,2013-10-05 05:13:00,
2013-10-05 01:43:00,60.0,60.0,30.43,SSE,152,1.0,2.0,99,0.00,,,0.00,0.000000,,2013-10-05 05:43:00,
2013-10-05 01:52:00,60.0,60.0,30.43,SSE,152,1.0,2.0,99,0.00,,,0.00,0.000000,,2013-10-05 05:52:00,
2013-10-05 02:02:00,60.0,60.0,30.43,SSE,152,1.0,2.0,99,0.00,,,0.00,0.000000,,2013-10-05 06:02:00,
2013-10-05 02:12:00,60.0,60.0,30.43,SSE,152,1.0,2.0,99,0.00,,,0.00,0.000000,,2013-10-05 06:12:00,
2013-10-05 02:43:00,59.0,59.0,30.44,SE,124,1.0,2.0,99,0.00,,,0.00,0.000000,,2013-10-05 06:43:00,
2013-10-05 02:52:00,59.0,59.0,30.44,SE,124,1.0,2.0,99,0.00,,,0.00,0.000000,,2013-10-05 06:52:00,
2013-10-05 03:02:00,59.0,59.0,30.44,SE,124,1.0,2.0,99,0.00,,,0.00,0.000000,,2013-10-05 07:02:00,
2013-10-05 03:12:00,59.0,59.0,30.44,SE,124,1.0,2.0,99,0.00,,,0.00,0.000000,,2013-10-05 07:12:00,
2013-10-05 03:42:00,57.0,57.0,30.43,SE,142,1.0,2.0,99,0.00,,,0.00,0.000000,,2013-10-05 07:42:00,
2013-10-05 03:52:00,57.0,57.0,30.43,SE,142,1.0,2.0,99,0.00,,,0.00,0.000000,,2013-10-05 07:52:00,
2013-10-05 04:02:00,57.0,57.0,30.43,SE,142,1.0,2.0,99,0.00,,,0.00,0.000000,,2013-10-05 08:02:00,
2013-10-05 04:12:00,57.0,57.0,30.43,SE,142,1.0,2.0,99,0.00,,,0.00,0.000000,,2013-10-05 08:12:00,
2013-10-05 04:42:00,58.0,58.0,30.43,SE,139,1.0,2.0,99,0.00,,,0.00,0.000000,,2013-10-05 08:42:00,
2013-10-05 04:52:00,58.0,58.0,30.43,SE,139,1.0,2.0,99,0.00,,,0.00,0.000000,,2013-10-05 08:52:00,
2013-10-05 05:02:00,58.0,58.0,30.43,SE,139,1.0,2.0,99,0.00,,,0.00,0.000000,,2013-10-05 09:02:00,
2013-10-05 05:12:00,58.0,58.0,30.43,SE,139,1.0,2.0,99,0.00,,,0.00,0.000000,,2013-10-05 09:12:00,
2013-10-05 05:43:00,56.0,56.0,30.44,SE,141,1.0,2.0,99,0.00,,,0.00,0.000000,,2013-10-05 09:43:00,
2013-10-05 05:54:00,56.0,56.0,30.44,SE,141,1.0,2.0,99,0.00,,,0.00,0.000000,,2013-10-05 09:54:00,
2013-10-05 06:04:00,56.0,56.0,30.44,SE,141,1.0,2.0,99,0.00,,,0.00,0.000000,,2013-10-05 10:04:00,
2013-10-05 06:12:00,56.0,56.0,30.44,SE,141,1.0,2.0,99,0.00,,,0.00,0.000000,,2013-10-05 10:12:00,
2013-10-05 06:43:00,57.0,57.0,30.45,SSE,147,1.0,2.0,99,0.00,,,0.00,0.000000,,2013-10-05 10:43:00,
2013-10-05 06:54:00,57.0,57.0,30.45,SSE,147,1.0,2.0,99,0.00,,,0.00,0.000000,,2013-10-05 10:54:00,
2013-10-05 07:02:00,57.0,57.0,30.45,SSE,147,1.0,2.0,99,0.00,,,0.00,0.000000,,2013-10-05 11:02:00,
2013-10-05 07:12:00,57.0,57.0,30.45,SSE,147,1.0,2.0,99,0.00,,,0.00,0.000000,,2013-10-05 11:12:00,
2013-10-05 07:43:00,55.0,55.0,30.47,SE,138,1.0,3.0,99,0.00,,,0.00,0.000000,,2013-10-05 11:43:00,
2013-10-05 07:52:00,55.0,55.0,30.47,SE,138,1.0,3.0,99,0.00,,,0.00,0.000000,,2013-10-05 11:52:00,
2013-10-05 08:02:00,55.0,55.0,30.47,SE,138,1.0,3.0,99,0.00,,,0.00,0.000000,,2013-10-05 12:02:00,
2013-10-05 08:12:00,55.0,55.0,30.47,SE,138,1.0,3.0,99,0.00,,,0.00,0.000000,,2013-10-05 12:12:00,
2013-10-05 08:42:00,56.0,56.0,30.46,SSE,162,1.0,2.0,99,0.00,,,0.00,10.000000,,2013-10-05 12:42:00,
2013-10-05 08:53:00,56.0,56.0,30.46,SSE,162,1.0,2.0,99,0.00,,,0.00,10.000000,,2013-10-05 12:53:00,
2013-10-05 09:02:00,56.0,56.0,30.46,SSE,162,1.0,2.0,99,0.00,,,0.00,10.000000,,2013-10-05 13:02:00,
2013-10-05 09:12:00,56.0,56.0,30.46,SSE,162,1.0,2.0,99,0.00,,,0.00,10.000000,,2013-10-05 13:12:00,
2013-10-05 09:42:00,65.0,65.0,30.46,ENE,65,0.0,1.0,99,0.00,,,0.00,104.000000,,2013-10-05 13:42:00,
2013-10-05 09:52:00,65.0,65.0,30.46,ENE,65,0.0,1.0,99,0.00,,,0.00,104.000000,,2013-10-05 13:52:00,
2013-10-05 10:02:00,65.0,65.0,30.46,ENE,65,0.0,1.0,99,0.00,,,0.00,104.000000,,2013-10-05 14:02:00,
2013-10-05 10:12:00,65.0,65.0,30.46,ENE,65,0.0,1.0,99,0.00,,,0.00,104.000000,,2013-10-05 14:12:00,
2013-10-05 10:52:00,77.0,71.0,30.45,North,357,1.0,2.0,83,0.00,,,0.00,338.000000,,2013-10-05 14:52:00,
2013-10-05 11:02:00,77.0,71.0,30.45,North,357,1.0,2.0,83,0.00,,,0.00,338.000000,,2013-10-05 15:02:00,
2013-10-05 11:12:00,77.0,71.0,30.45,North,357,1.0,2.0,83,0.00,,,0.00,338.000000,,2013-10-05 15:12:00,
2013-10-05 12:13:00,83.0,64.0,30.44,WSW,248,2.0,6.0,52,0.00,,,0.00,518.000000,,2013-10-05 16:13:00,
2013-10-05 13:42:00,87.0,61.0,30.40,NNE,25,3.0,6.0,42,0.00,,,0.00,770.000000,,2013-10-05 17:42:00,
2013-10-05 13:53:00,87.0,61.0,30.40,NNE,25,3.0,6.0,42,0.00,,,0.00,770.000000,,2013-10-05 17:53:00,
2013-10-05 14:02:00,87.0,61.0,30.40,NNE,25,3.0,6.0,42,0.00,,,0.00,770.000000,,2013-10-05 18:02:00,
2013-10-05 14:12:00,87.0,61.0,30.40,NNE,25,3.0,6.0,42,0.00,,,0.00,770.000000,,2013-10-05 18:12:00,
2013-10-05 14:42:00,89.0,63.0,30.38,SSE,149,2.0,9.0,42,0.00,,,0.00,820.000000,,2013-10-05 18:42:00,
2013-10-05 14:52:00,89.0,63.0,30.38,SSE,149,2.0,9.0,42,0.00,,,0.00,820.000000,,2013-10-05 18:52:00,
2013-10-05 15:02:00,89.0,63.0,30.38,SSE,149,2.0,9.0,42,0.00,,,0.00,820.000000,,2013-10-05 19:02:00,
2013-10-05 15:11:00,89.0,63.0,30.38,SSE,149,2.0,9.0,42,0.00,,,0.00,820.000000,,2013-10-05 19:11:00,
2013-10-05 15:42:00,91.0,62.0,30.36,NNW,339,3.0,11.0,38,0.00,,,0.00,751.000000,,2013-10-05 19:42:00,
2013-10-05 15:52:00,91.0,62.0,30.36,NNW,339,3.0,11.0,38,0.00,,,0.00,751.000000,,2013-10-05 19:52:00,
2013-10-05 16:02:00,91.0,62.0,30.36,NNW,339,3.0,11.0,38,0.00,,,0.00,751.000000,,2013-10-05 20:02:00,
2013-10-05 16:11:00,91.0,62.0,30.36,NNW,339,3.0,11.0,38,0.00,,,0.00,751.000000,,2013-10-05 20:11:00,
2013-10-05 16:42:00,89.0,62.0,30.36,SSE,163,2.0,10.0,41,0.00,,,0.00,638.000000,,2013-10-05 20:42:00,
2013-10-05 16:52:00,89.0,62.0,30.36,SSE,163,2.0,10.0,41,0.00,,,0.00,638.000000,,2013-10-05 20:52:00,
2013-10-05 17:02:00,89.0,62.0,30.36,SSE,163,2.0,10.0,41,0.00,,,0.00,638.000000,,2013-10-05 21:02:00,
2013-10-05 17:12:00,89.0,62.0,30.36,SSE,163,2.0,10.0,41,0.00,,,0.00,638.000000,,2013-10-05 21:12:00,
2013-10-05 18:43:00,79.0,69.0,30.35,NE,48,2.0,4.0,72,0.00,,,0.00,258.000000,,2013-10-05 22:43:00,
2013-10-05 18:53:00,79.0,69.0,30.35,NE,48,2.0,4.0,72,0.00,,,0.00,258.000000,,2013-10-05 22:53:00,
2013-10-05 19:02:00,79.0,69.0,30.35,NE,48,2.0,4.0,72,0.00,,,0.00,258.000000,,2013-10-05 23:02:00,
2013-10-05 19:13:00,79.0,69.0,30.35,NE,48,2.0,4.0,72,0.00,,,0.00,258.000000,,2013-10-05 23:13:00,
2013-10-05 21:11:00,65.0,64.0,30.38,ESE,103,0.0,2.0,97,-99.99,,,0.00,0.000000,,2013-10-06 01:11:00,
2013-10-05 21:52:00,62.0,61.0,30.39,SSE,161,1.0,2.0,98,0.00,,,0.00,0.000000,,2013-10-06 01:52:00,
2013-10-05 22:02:00,62.0,61.0,30.39,SSE,161,1.0,2.0,98,0.00,,,0.00,0.000000,,2013-10-06 02:02:00,
2013-10-05 22:12:00,62.0,61.0,30.39,SSE,161,1.0,2.0,98,0.00,,,0.00,0.000000,,2013-10-06 02:12:00,
2013-10-05 22:42:00,62.0,61.0,30.39,NNW,332,1.0,2.0,98,0.00,,,0.00,0.000000,,2013-10-06 02:42:00,
2013-10-05 22:53:00,62.0,61.0,30.39,NNW,332,1.0,2.0,98,0.00,,,0.00,0.000000,,2013-10-06 02:53:00,
2013-10-05 23:02:00,62.0,61.0,30.39,NNW,332,1.0,2.0,98,0.00,,,0.00,0.000000,,2013-10-06 03:02:00,
2013-10-05 23:12:00,62.0,61.0,30.39,NNW,332,1.0,2.0,98,0.00,,,0.00,0.000000,,2013-10-06 03:12:00,
2013-10-05 23:45:00,61.0,60.0,30.39,NNW,339,1.0,2.0,98,0.00,,,0.00,0.000000,,2013-10-06 03:45:00,
2013-10-05 23:54:00,61.0,60.0,30.39,NNW,339,1.0,2.0,98,0.00,,,0.00,0.000000,,2013-10-06 03:54:00,